Location: Highland Meadows Observing Site
(48.4428°N, 114.5461°W)
Time: 07:43:00
(UTC-06:00)

Amateur Radio Satellites - All Passes

Search period start: 29 March 2015 07:13
Search period end: 30 March 2015 07:13
Location: Highland Meadows Observing Site, 48.4428°N, 114.5461°W

Satellite Date Start Highest point End Downlink Frequencies (MHz)
Time Altitude Azimuth
CUSAT 1 29 Mar 07:28:44 07:31:09 16° 68° (ENE) 07:34:08 437.405
PHONESAT 2.4 29 Mar 07:31:36 07:32:43 11° 157° (SSE) 07:33:54 2401.200-2431.200
RS-15 29 Mar 07:38:32 07:46:36 21° 259° (W) 07:54:14 29.354- 29.394
CUBESAT XI-V 29 Mar 07:44:58 07:49:32 47° 262° (W) 07:54:05 437.345
O/OREOS (USA 219) 29 Mar 07:54:32 07:55:24 10° 324° (NW) 07:56:06 437.305
JAS-2 29 Mar 08:15:27 08:21:07 22° 309° (NW) 08:26:24 435.910
DANDE 29 Mar 08:15:40 08:18:57 30° 74° (ENE) 08:23:11 436.750
GONETS M04 29 Mar 08:18:18 08:27:01 64° 267° (W) 08:35:41
STRAND 1 29 Mar 08:25:42 08:30:29 37° 264° (W) 08:35:15 437.568
AO-7 29 Mar 08:29:06 08:35:22 24° 314° (NW) 08:41:24 29.400- 29.500
VERMONT LUNAR 29 Mar 08:29:10 08:31:45 21° 175° (S) 08:34:20 437.305
CUTE-I 29 Mar 08:40:53 08:46:10 61° 290° (WNW) 08:51:23 437.470
Cubesat XI-IV 29 Mar 08:41:00 08:46:17 60° 290° (WNW) 08:51:31 437.490
PRISM 29 Mar 08:43:16 08:45:36 14° 272° (W) 08:47:45 437.425
HO-68 29 Mar 08:45:48 08:48:38 13° 81° (E) 08:51:56 435.675
PHONESAT 2.4 29 Mar 09:07:35 09:10:19 21° 173° (S) 09:13:06 2401.200-2431.200
CANX-2 29 Mar 09:08:52 09:10:18 12° 85° (E) 09:11:57 2200.000
GOMX 1 29 Mar 09:09:00 09:10:45 12° 87° (E) 09:12:44 467.674
CUSAT 1 29 Mar 09:10:07 09:14:04 60° 260° (W) 09:19:19 437.405
CUTE 1.7 + AOD 2 29 Mar 09:22:05 09:24:26 15° 87° (E) 09:26:58 437.475
AAUSAT CUBESAT 2 29 Mar 09:47:13 09:49:48 16° 88° (E) 09:52:31 437.432
UNISAT 6 29 Mar 09:49:02 09:50:55 13° 58° (ENE) 09:53:00 437.425
SEEDS 29 Mar 09:50:50 09:54:18 24° 92° (E) 09:57:48 437.485
BRITE-PL 29 Mar 09:57:40 10:01:47 55° 100° (E) 10:06:01 437.365/2234.400
TIGRISAT 29 Mar 09:58:45 10:01:11 15° 60° (ENE) 10:03:46 435.000
DANDE 29 Mar 09:58:56 10:02:13 26° 263° (W) 10:06:14 436.750
VERMONT LUNAR 29 Mar 10:06:31 10:08:50 17° 192° (SSW) 10:11:10 437.305
Oscar 11 29 Mar 10:11:20 10:13:41 14° 87° (E) 10:16:10 145.826/435.025
COMPASS 1 29 Mar 10:13:19 10:17:10 32° 95° (E) 10:21:02 437.405
CINEMA 3 29 Mar 10:15:54 10:19:21 23° 92° (E) 10:23:00 145.822/145.860
GONETS M04 29 Mar 10:17:49 10:22:14 14° 288° (WNW) 10:26:07
CUTE-I 29 Mar 10:23:21 10:25:18 12° 309° (NW) 10:27:02 437.470
Cubesat XI-IV 29 Mar 10:23:31 10:25:26 12° 309° (NW) 10:27:07 437.490
UWE-3 29 Mar 10:25:20 10:27:30 14° 87° (E) 10:29:55 435.000/436.395/437.385
ANTELSAT 29 Mar 10:27:31 10:31:08 28° 66° (ENE) 10:34:54 437.575/2403.000
QB50P1 29 Mar 10:28:35 10:31:12 17° 61° (ENE) 10:33:56 145.935-145.965
CUBEBUG 2 29 Mar 10:29:22 10:32:21 18° 90° (E) 10:35:32 437.445
DUCHIFAT 1 29 Mar 10:30:30 10:33:10 17° 61° (ENE) 10:35:55 145.980
HO-68 29 Mar 10:30:48 10:37:59 66° 103° (ESE) 10:45:08 435.675
ZACube-1 29 Mar 10:34:20 10:36:31 14° 87° (E) 10:38:55 437.345
DOVE 4 29 Mar 10:34:41 10:38:56 61° 101° (E) 10:43:23 437.250
CANX-2 29 Mar 10:42:34 10:46:55 82° 285° (WNW) 10:51:14 2200.000
QB50P2 29 Mar 10:42:37 10:45:52 22° 64° (ENE) 10:49:12 145.880/145.840
GOMX 1 29 Mar 10:45:15 10:49:28 74° 286° (WNW) 10:53:52 467.674
BEESAT 3 29 Mar 10:45:16 10:48:08 19° 114° (ESE) 10:51:07 437.485
PHONESAT 2.4 29 Mar 10:45:24 10:48:03 20° 190° (S) 10:50:43 2401.200-2431.200
CUTE 1.7 + AOD 2 29 Mar 10:56:34 11:00:52 65° 287° (WNW) 11:05:08 437.475
DELFI C3 29 Mar 11:02:13 11:06:00 34° 96° (E) 11:09:47 145.870
POPSAT HIP 1 29 Mar 11:10:38 11:14:33 39° 69° (ENE) 11:18:31 437.405
BUGSAT 1 29 Mar 11:10:57 11:14:32 29° 67° (ENE) 11:18:09 437.445
UKube-1 29 Mar 11:16:53 11:20:26 24° 93° (E) 11:24:02 .
AIST 2 29 Mar 11:19:58 11:22:08 14° 111° (ESE) 11:24:29 435.215
NANOSAT C BR1 29 Mar 11:21:07 11:25:11 50° 71° (ENE) 11:29:18 145.865
AAUSAT CUBESAT 2 29 Mar 11:21:41 11:25:51 58° 288° (WNW) 11:30:00 437.432
UNISAT 6 29 Mar 11:22:50 11:27:07 86° 256° (WSW) 11:31:30 437.425
POLYITAN 1 29 Mar 11:25:11 11:29:19 56° 72° (ENE) 11:33:28 437.675
HUMSAT D 29 Mar 11:25:35 11:28:57 23° 92° (E) 11:32:24 437.325/437.525
SEEDS 29 Mar 11:26:15 11:30:16 39° 291° (WNW) 11:34:15 437.485
DX 1 29 Mar 11:26:42 11:30:36 32° 96° (E) 11:34:30 434.975-435.025
TIGRISAT 29 Mar 11:33:13 11:37:27 70° 258° (WSW) 11:41:47 435.000
BRITE-PL 29 Mar 11:37:14 11:40:03 17° 297° (WNW) 11:42:46 437.365/2234.400
BEESAT 2 29 Mar 11:44:32 11:48:35 57° 124° (ESE) 11:52:41 435.950
Oscar 11 29 Mar 11:46:01 11:50:23 68° 287° (WNW) 11:54:43 145.826/435.025
COMPASS 1 29 Mar 11:49:07 11:52:49 28° 293° (WNW) 11:56:27 437.405
CINEMA 3 29 Mar 11:52:38 11:56:46 42° 290° (WNW) 12:01:02 145.822/145.860
FUNcube-1 29 Mar 11:56:11 12:00:34 85° 102° (ESE) 12:05:02 145.935
UWE-3 29 Mar 12:00:13 12:04:36 73° 286° (WNW) 12:09:05 435.000/436.395/437.385
QB50P1 29 Mar 12:02:31 12:06:41 61° 259° (W) 12:10:53 145.935-145.965
ANTELSAT 29 Mar 12:03:59 12:07:54 34° 264° (W) 12:11:51 437.575/2403.000
DUCHIFAT 1 29 Mar 12:04:27 12:08:36 60° 259° (W) 12:12:48 145.980
CUBEBUG 2 29 Mar 12:05:07 12:09:25 55° 288° (WNW) 12:13:50 437.445
VELOX 1 29 Mar 12:06:09 12:10:15 36° 97° (E) 12:14:21 145.980
CUBEBUG 1 29 Mar 12:07:09 12:10:13 19° 90° (E) 12:13:21 437.445
ZACube-1 29 Mar 12:09:05 12:13:26 72° 286° (WNW) 12:17:52 437.345
AISAT 29 Mar 12:10:44 12:14:56 42° 98° (E) 12:19:08 437.250
50 SAT 29 Mar 12:12:41 12:16:34 45° 99° (E) 12:20:29 437.505
DOVE 4 29 Mar 12:13:34 12:16:23 17° 297° (WNW) 12:19:09 437.250
QB50P2 29 Mar 12:17:32 12:21:34 42° 262° (W) 12:25:37 145.880/145.840
HO-68 29 Mar 12:19:05 12:25:19 32° 303° (WNW) 12:31:26 435.675
CANX-2 29 Mar 12:20:41 12:22:12 11° 302° (WNW) 12:23:32 2200.000
BEESAT 3 29 Mar 12:21:46 12:25:50 59° 312° (NW) 12:29:58 437.485
DELFI C3 29 Mar 12:37:38 12:41:04 25° 294° (WNW) 12:44:26 145.870
ESTCUBE 1 29 Mar 12:39:55 12:44:15 44° 98° (E) 12:48:34 437.505/2401.250
BUGSAT 1 29 Mar 12:46:20 12:50:02 29° 265° (W) 12:53:39 437.445
POPSAT HIP 1 29 Mar 12:47:13 12:50:37 23° 268° (W) 12:53:57 437.405
UKube-1 29 Mar 12:52:41 12:56:44 38° 292° (WNW) 13:00:44 .
AIST 2 29 Mar 12:55:54 13:00:12 82° 308° (NW) 13:04:32 435.215
NANOSAT C BR1 29 Mar 12:58:24 13:01:23 18° 270° (W) 13:04:16 145.865
O/OREOS (USA 219) 29 Mar 12:59:00 13:01:32 15° 41° (NE) 13:04:10 437.305
HUMSAT D 29 Mar 13:00:54 13:04:54 40° 290° (WNW) 13:08:53 437.325/437.525
POLYITAN 1 29 Mar 13:02:55 13:05:39 16° 271° (W) 13:08:15 437.675
DX 1 29 Mar 13:03:00 13:06:50 30° 294° (WNW) 13:10:35 434.975-435.025
YUBILEINY 29 Mar 13:16:14 13:22:20 22° 78° (ENE) 13:28:47 435.215
Oscar 19 29 Mar 13:20:13 13:24:48 35° 66° (ENE) 13:29:29 437.125/150
BEESAT 2 29 Mar 13:23:33 13:27:03 25° 324° (NW) 13:30:32 435.950
FUNcube-1 29 Mar 13:34:11 13:36:23 14° 300° (WNW) 13:38:28 145.935
Gurwin Techsat 1B 29 Mar 13:37:00 13:40:14 17° 57° (ENE) 13:43:38 435.225
UWE-3 29 Mar 13:39:32 13:40:29 10° 303° (WNW) 13:41:13 435.000/436.395/437.385
TISAT 1 29 Mar 13:41:31 13:45:28 39° 98° (E) 13:49:26 437.305
CUBEBUG 1 29 Mar 13:42:42 13:46:55 50° 289° (WNW) 13:51:05 437.445
VELOX 1 29 Mar 13:42:58 13:46:44 27° 295° (WNW) 13:50:25 145.980
AISAT 29 Mar 13:47:46 13:51:22 24° 296° (WNW) 13:54:53 437.250
50 SAT 29 Mar 13:48:15 13:51:15 20° 296° (WNW) 13:54:09 437.505
ZACube-1 29 Mar 13:48:21 13:49:07 10° 303° (WNW) 13:49:42 437.345
SPROUT 29 Mar 13:51:40 13:55:55 60° 100° (E) 14:00:09 437.525
AO-7 29 Mar 13:58:14 14:02:48 17° 38° (NE) 14:07:38 29.400- 29.500
BEESAT 3 29 Mar 14:02:18 14:04:46 15° 334° (NNW) 14:07:11 437.485
ESTCUBE 1 29 Mar 14:17:14 14:20:56 24° 296° (WNW) 14:24:32 437.505/2401.250
ITAMSAT 1 29 Mar 14:25:19 14:30:16 46° 68° (ENE) 14:35:16 435.822/435.867
SWISSCUBE 29 Mar 14:27:37 14:31:27 24° 92° (E) 14:35:21 437.505
BEESAT 29 Mar 14:30:35 14:34:23 24° 92° (E) 14:38:17 436.000
AIST 2 29 Mar 14:36:22 14:39:28 19° 330° (NNW) 14:42:32 435.215
O/OREOS (USA 219) 29 Mar 14:37:12 14:41:49 81° 63° (ENE) 14:46:20 437.305
PCSat 29 Mar 14:41:44 14:44:39 15° 106° (ESE) 14:47:49 145.827
Oscar 19 29 Mar 14:59:28 15:04:11 36° 264° (W) 15:08:54 437.125/150
JAS-2 29 Mar 15:01:54 15:06:56 21° 50° (NE) 15:12:25 435.910
YUBILEINY 29 Mar 15:09:15 15:18:05 90° 99° (E) 15:27:00 435.215
Gurwin Techsat 1B 29 Mar 15:14:14 15:19:34 89° 235° (SW) 15:24:57 435.225
ITUPSAT 1 29 Mar 15:16:56 15:21:43 60° 102° (ESE) 15:26:27 437.325
TISAT 1 29 Mar 15:17:43 15:21:06 23° 296° (WNW) 15:24:25 437.305
SPROUT 29 Mar 15:28:46 15:31:38 17° 298° (WNW) 15:34:22 437.525
AO-7 29 Mar 15:45:59 15:53:54 53° 61° (ENE) 16:01:53 29.400- 29.500
HORYU 2 29 Mar 15:52:25 15:56:44 54° 71° (ENE) 16:01:07 437.375
SWISSCUBE 29 Mar 16:04:57 16:09:35 47° 291° (WNW) 16:14:08 437.505
ITAMSAT 1 29 Mar 16:05:29 16:10:00 28° 267° (W) 16:14:27 435.822/435.867
BEESAT 29 Mar 16:07:54 16:12:31 47° 291° (WNW) 16:17:06 436.000
AIST 1 29 Mar 16:09:20 16:13:41 77° 79° (E) 16:17:58
KKS-1 29 Mar 16:14:07 16:18:25 47° 99° (E) 16:22:44 437.445
O/OREOS (USA 219) 29 Mar 16:18:26 16:20:38 13° 261° (W) 16:22:37 437.305
PCSat 29 Mar 16:21:57 16:27:23 87° 125° (SE) 16:32:52 145.827
JAS-2 29 Mar 16:43:46 16:50:48 76° 72° (ENE) 16:58:34 435.910
STARS 29 Mar 16:45:47 16:50:11 64° 102° (ESE) 16:54:34 437.465
Cubesat XI-IV 29 Mar 16:53:09 16:53:13 10° 50° (NE) 16:53:32 437.490
ITUPSAT 1 29 Mar 16:55:39 16:59:14 21° 299° (WNW) 17:02:42 437.325
Gurwin Techsat 1B 29 Mar 16:57:35 17:00:26 14° 275° (W) 17:03:02 435.225
YUBILEINY 29 Mar 17:09:18 17:16:22 25° 304° (WNW) 17:23:12 435.215
BEESAT 3 29 Mar 17:22:40 17:24:28 12° 21° (NNE) 17:26:20 437.485
HORYU 2 29 Mar 17:30:37 17:33:48 18° 270° (W) 17:36:51 437.375
AO-7 29 Mar 17:39:04 17:46:55 44° 262° (W) 17:54:44 29.400- 29.500
AIST 1 29 Mar 17:49:07 17:50:46 12° 277° (W) 17:52:11
MOZHAYETS 4 29 Mar 17:50:16 17:54:27 32° 95° (E) 17:58:38
KKS-1 29 Mar 17:51:20 17:54:49 22° 297° (WNW) 17:58:14 437.445
AIST 2 29 Mar 17:58:42 18:00:16 12° 18° (NNE) 18:01:53 435.215
PCSat 29 Mar 18:07:08 18:11:32 24° 326° (NW) 18:15:53 145.827
BEESAT 2 29 Mar 18:23:03 18:26:22 22° 34° (NE) 18:29:40 435.950
STARS 29 Mar 18:23:19 18:26:14 17° 299° (WNW) 18:29:02 437.465
CUTE-I 29 Mar 18:26:50 18:32:00 50° 69° (ENE) 18:37:11 437.470
Cubesat XI-IV 29 Mar 18:27:04 18:32:15 51° 69° (ENE) 18:37:28 437.490
JAS-2 29 Mar 18:30:51 18:36:43 26° 274° (W) 18:42:49 435.910
AUBIESAT-1 29 Mar 18:38:20 18:42:28 28° 98° (E) 18:46:36 437.475
SO-50 29 Mar 18:57:16 18:59:41 14° 110° (ESE) 19:02:19 436.795
BEESAT 3 29 Mar 18:59:39 19:03:37 42° 44° (NE) 19:07:32 437.485
M-CUBED/EXP-1 PRIME 29 Mar 19:02:38 19:07:23 51° 104° (ESE) 19:12:05 437.505
HO-68 29 Mar 19:18:45 19:23:18 19° 48° (NE) 19:28:05 435.675
MOZHAYETS 4 29 Mar 19:27:29 19:31:41 33° 293° (WNW) 19:35:50
GONETS M04 29 Mar 19:28:25 19:35:46 33° 83° (E) 19:43:20
AIST 2 29 Mar 19:36:11 19:40:07 34° 40° (NE) 19:44:01 435.215
BRITE-PL 29 Mar 19:36:43 19:38:50 14° 60° (ENE) 19:41:04 437.365/2234.400
CUBESAT XI-V 29 Mar 19:38:00 19:42:12 33° 95° (E) 19:46:24 437.345
RS-15 29 Mar 19:52:25 20:02:38 51° 115° (ESE) 20:13:12 29.354- 29.394
PCSat 29 Mar 19:55:22 19:57:02 11° 351° (N) 19:58:37 145.827
BEESAT 2 29 Mar 20:00:46 20:04:56 69° 235° (SW) 20:09:00 435.950
CANX-2 29 Mar 20:05:30 20:07:50 15° 60° (ENE) 20:10:20 2200.000
CUTE-I 29 Mar 20:07:51 20:12:23 27° 268° (W) 20:16:50 437.470
Cubesat XI-IV 29 Mar 20:08:08 20:12:40 26° 268° (W) 20:17:06 437.490
DOVE 4 29 Mar 20:09:46 20:11:23 12° 59° (ENE) 20:13:09 437.250
AUBIESAT-1 29 Mar 20:12:49 20:17:26 45° 297° (WNW) 20:21:58 437.475
CUTE 1.7 + AOD 2 29 Mar 20:18:49 20:21:39 18° 62° (ENE) 20:24:36 437.475
PRISM 29 Mar 20:19:44 20:23:55 65° 102° (ESE) 20:28:03 437.425
GOMX 1 29 Mar 20:20:35 20:23:53 22° 65° (ENE) 20:27:11 467.674
STRAND 1 29 Mar 20:31:53 20:36:56 56° 100° (E) 20:41:57 437.568
SO-50 29 Mar 20:34:53 20:39:34 90° 307° (NW) 20:44:26 436.795
M-CUBED/EXP-1 PRIME 29 Mar 20:37:56 20:42:00 27° 302° (WNW) 20:45:59 437.505
BEESAT 3 29 Mar 20:38:00 20:41:32 27° 243° (WSW) 20:44:58 437.485
AAUSAT CUBESAT 2 29 Mar 20:42:01 20:44:54 19° 63° (ENE) 20:47:55 437.432
SEEDS 29 Mar 20:46:43 20:50:16 27° 66° (ENE) 20:53:55 437.485
HO-68 29 Mar 21:02:51 21:09:57 71° 69° (ENE) 21:17:09 435.675
COMPASS 1 29 Mar 21:08:18 21:12:08 36° 69° (ENE) 21:16:03 437.405
Oscar 11 29 Mar 21:09:46 21:12:46 19° 62° (ENE) 21:15:54 145.826/435.025
BRITE-PL 29 Mar 21:12:17 21:16:56 83° 257° (WSW) 21:21:18 437.365/2234.400
AIST 2 29 Mar 21:14:48 21:18:46 37° 240° (WSW) 21:22:38 435.215
CUBESAT XI-V 29 Mar 21:15:30 21:19:38 32° 294° (WNW) 21:23:42 437.345
CINEMA 3 29 Mar 21:21:44 21:25:23 31° 68° (ENE) 21:29:05 145.822/145.860
FUNcube-1 29 Mar 21:22:13 21:24:08 13° 59° (ENE) 21:26:13 145.935
GONETS M04 29 Mar 21:23:29 21:32:08 64° 285° (WNW) 21:40:51
UWE-3 29 Mar 21:26:32 21:29:15 18° 62° (ENE) 21:32:06 435.000/436.395/437.385
CUBEBUG 2 29 Mar 21:31:44 21:34:58 23° 65° (ENE) 21:38:17 437.445
ZACube-1 29 Mar 21:34:20 21:37:02 17° 62° (ENE) 21:39:52 437.345
DANDE 29 Mar 21:35:11 21:37:10 18° 96° (E) 21:39:06 436.750
CANX-2 29 Mar 21:39:03 21:43:17 72° 258° (WSW) 21:47:35 2200.000
PCSat 29 Mar 21:40:27 21:42:56 13° 17° (NNE) 21:45:31 145.827
DOVE 4 29 Mar 21:44:21 21:48:39 85° 256° (WSW) 21:52:51 437.250
CUTE 1.7 + AOD 2 29 Mar 21:53:02 21:57:13 56° 260° (W) 22:01:26 437.475
DELFI C3 29 Mar 21:53:36 21:57:20 36° 69° (ENE) 22:01:07 145.870
PRISM 29 Mar 21:56:22 21:58:58 16° 300° (WNW) 22:01:25 437.425
GOMX 1 29 Mar 21:57:37 22:01:53 43° 262° (W) 22:05:57 467.674
RS-15 29 Mar 22:04:09 22:14:57 61° 320° (NW) 22:26:05 29.354- 29.394
STRAND 1 29 Mar 22:11:44 22:15:49 24° 299° (WNW) 22:19:47 437.568
UKube-1 29 Mar 22:15:18 22:19:13 35° 67° (ENE) 22:23:11 .
AAUSAT CUBESAT 2 29 Mar 22:16:08 22:20:13 52° 261° (W) 22:24:22 437.432
SO-50 29 Mar 22:16:59 22:20:48 23° 331° (NNW) 22:24:40 436.795
HUMSAT D 29 Mar 22:21:23 22:24:47 26° 66° (ENE) 22:28:16 437.325/437.525
SEEDS 29 Mar 22:22:09 22:26:00 33° 264° (W) 22:29:53 437.485
CUSAT 1 29 Mar 22:25:24 22:28:04 49° 284° (WNW) 22:30:36 437.405
DX 1 29 Mar 22:25:46 22:29:56 46° 69° (ENE) 22:34:07 434.975-435.025
Oscar 11 29 Mar 22:44:23 22:48:37 54° 260° (W) 22:52:54 145.826/435.025
COMPASS 1 29 Mar 22:44:29 22:47:58 24° 268° (W) 22:51:25 437.405
HO-68 29 Mar 22:52:25 22:58:23 27° 269° (W) 23:04:13 435.675
FUNcube-1 29 Mar 22:55:49 22:59:57 78° 257° (WSW) 23:04:09 145.935
CINEMA 3 29 Mar 22:59:01 23:02:39 28° 266° (W) 23:06:14 145.822/145.860
UWE-3 29 Mar 23:01:23 23:05:27 54° 260° (W) 23:09:34 435.000/436.395/437.385
50 SAT 29 Mar 23:02:23 23:06:07 44° 71° (ENE) 23:09:54 437.505
CUBEBUG 1 29 Mar 23:06:51 23:10:30 27° 65° (ENE) 23:14:12 437.445
VELOX 1 29 Mar 23:07:19 23:11:38 53° 71° (ENE) 23:15:59 145.980
CUBEBUG 2 29 Mar 23:07:36 23:11:31 39° 263° (W) 23:15:26 437.445
ZACube-1 29 Mar 23:08:59 23:13:04 55° 260° (W) 23:17:11 437.345
UNISAT 6 29 Mar 23:11:57 23:14:44 16° 88° (E) 23:17:43 437.425
AISAT 29 Mar 23:12:08 23:16:31 61° 72° (ENE) 23:20:54 437.250
SPROUT 29 Mar 23:17:30 23:18:12 10° 57° (ENE) 23:19:06 437.525
DANDE 29 Mar 23:18:45 23:20:27 14° 291° (WNW) 23:22:00 436.750
YUBILEINY 29 Mar 23:19:44 23:24:07 15° 45° (NE) 23:28:56 435.215
TIGRISAT 29 Mar 23:21:40 23:24:54 19° 90° (E) 23:28:18 435.000
PCSat 29 Mar 23:23:10 23:28:05 34° 41° (NE) 23:33:02 145.827
GONETS M04 29 Mar 23:25:46 23:31:16 17° 312° (NW) 23:36:24
DELFI C3 29 Mar 23:29:17 23:32:38 23° 267° (W) 23:35:56 145.870
ESTCUBE 1 29 Mar 23:43:01 23:47:32 64° 73° (ENE) 23:52:04 437.505/2401.250
QB50P1 29 Mar 23:44:58 23:47:39 17° 89° (E) 23:50:27 145.935-145.965
DUCHIFAT 1 29 Mar 23:46:33 23:49:14 17° 90° (E) 23:52:04 145.980
ANTELSAT 29 Mar 23:51:32 23:55:47 37° 97° (E) 00:00:08 437.575/2403.000
UKube-1 29 Mar 23:51:41 23:55:26 28° 265° (W) 23:59:10 .
HUMSAT D 29 Mar 23:56:44 00:00:28 33° 264° (W) 00:04:14 437.325/437.525
QB50P2 29 Mar 23:59:27 00:02:51 23° 93° (E) 00:06:19 145.880/145.840
SO-50 30 Mar 00:01:05 00:03:06 12° 355° (N) 00:05:06 436.795
DX 1 30 Mar 00:03:03 00:06:26 21° 268° (W) 00:09:44 434.975-435.025
ISS 30 Mar 00:13:51 00:16:54 39° 148° (SSE) 00:19:58 145.825
RS-15 30 Mar 00:20:08 00:30:03 35° 352° (N) 00:40:17 29.354- 29.394
BUGSAT 1 30 Mar 00:24:39 00:28:10 28° 95° (E) 00:31:42 437.445
POPSAT HIP 1 30 Mar 00:27:42 00:31:45 43° 98° (E) 00:35:49 437.405
TISAT 1 30 Mar 00:37:18 00:41:22 49° 71° (ENE) 00:45:27 437.305
NANOSAT C BR1 30 Mar 00:38:02 00:42:13 55° 100° (E) 00:46:22 145.865
50 SAT 30 Mar 00:38:33 00:41:19 18° 270° (W) 00:43:59 437.505
CUBEBUG 1 30 Mar 00:42:38 00:46:46 37° 263° (W) 00:50:52 437.445
POLYITAN 1 30 Mar 00:42:42 00:46:56 64° 101° (ESE) 00:51:09 437.675
VELOX 1 30 Mar 00:45:22 00:48:35 19° 270° (W) 00:51:40 145.980
UNISAT 6 30 Mar 00:47:28 00:52:01 66° 287° (WNW) 00:56:37 437.425
SPROUT 30 Mar 00:49:20 00:53:36 75° 74° (ENE) 00:57:54 437.525
AISAT 30 Mar 00:50:41 00:53:34 16° 271° (W) 00:56:20 437.250
ITUPSAT 1 30 Mar 00:51:54 00:54:51 17° 58° (ENE) 00:57:56 437.325
TIGRISAT 30 Mar 00:57:33 01:02:00 54° 289° (WNW) 01:06:32 435.000
PCSat 30 Mar 01:06:29 01:11:46 52° 243° (WSW) 01:17:00 145.827
YUBILEINY 30 Mar 01:14:55 01:23:35 56° 72° (ENE) 01:32:11 435.215
QB50P1 30 Mar 01:19:46 01:23:55 55° 288° (WNW) 01:28:04 145.935-145.965
DUCHIFAT 1 30 Mar 01:21:20 01:25:28 54° 289° (WNW) 01:29:34 145.980
ESTCUBE 1 30 Mar 01:21:57 01:24:54 16° 272° (W) 01:27:43 437.505/2401.250
ANTELSAT 30 Mar 01:28:33 01:32:30 29° 294° (WNW) 01:36:27 437.575/2403.000
QB50P2 30 Mar 01:34:57 01:38:55 38° 291° (WNW) 01:42:51 145.880/145.840
SWISSCUBE 30 Mar 01:37:37 01:42:07 42° 68° (ENE) 01:46:41 437.505
BEESAT 30 Mar 01:40:31 01:44:59 41° 68° (ENE) 01:49:31 436.000
SO-50 30 Mar 01:42:39 01:45:38 16° 19° (NNE) 01:48:41 436.795
KKS-1 30 Mar 01:43:51 01:44:20 10° 55° (NE) 01:45:00 437.445
ISS 30 Mar 01:50:02 01:53:16 58° 347° (NNW) 01:56:28 145.825
BUGSAT 1 30 Mar 02:00:08 02:03:39 29° 293° (WNW) 02:07:08 437.445
POPSAT HIP 1 30 Mar 02:04:07 02:07:25 22° 296° (WNW) 02:10:39 437.405
STARS 30 Mar 02:12:56 02:14:49 13° 58° (ENE) 02:16:52 437.465
TISAT 1 30 Mar 02:14:26 02:17:28 18° 269° (W) 02:20:24 437.305
NANOSAT C BR1 30 Mar 02:14:48 02:17:43 18° 298° (WNW) 02:20:33 145.865
POLYITAN 1 30 Mar 02:19:44 02:22:27 16° 299° (WNW) 02:25:03 437.675
UNISAT 6 30 Mar 02:27:17 02:28:03 10° 304° (NW) 02:28:37 437.425
ITUPSAT 1 30 Mar 02:27:23 02:32:13 79° 256° (WSW) 02:37:05 437.325
SPROUT 30 Mar 02:28:19 02:30:19 13° 274° (W) 02:32:07 437.525
RS-15 30 Mar 02:35:23 02:45:57 43° 25° (NNE) 02:57:01 29.354- 29.394
ITAMSAT 1 30 Mar 02:36:36 02:38:08 11° 84° (E) 02:39:59 435.822/435.867
Oscar 19 30 Mar 03:06:29 03:11:37 60° 101° (E) 03:16:45 437.125/150
YUBILEINY 30 Mar 03:12:11 03:20:12 39° 274° (W) 03:27:59 435.215
KKS-1 30 Mar 03:15:49 03:20:13 69° 73° (ENE) 03:24:39 437.445
SWISSCUBE 30 Mar 03:16:02 03:20:10 27° 267° (W) 03:24:13 437.505
BEESAT 30 Mar 03:18:52 03:23:00 27° 266° (W) 03:27:04 436.000
SO-50 30 Mar 03:22:42 03:27:26 43° 42° (NE) 03:32:10 436.795
ISS 30 Mar 03:26:47 03:29:57 47° 6° (N) 03:33:07 145.825
Gurwin Techsat 1B 30 Mar 03:27:03 03:31:33 28° 92° (E) 03:36:06 435.225
STARS 30 Mar 03:46:18 03:50:41 90° 112° (ESE) 03:55:06 437.465
AO-7 30 Mar 03:47:50 03:48:24 10° 78° (ENE) 03:49:42 29.400- 29.500
JAS-2 30 Mar 03:53:27 03:54:58 11° 74° (ENE) 03:57:03 435.910
AUBIESAT-1 30 Mar 03:59:23 03:59:57 10° 46° (NE) 04:00:43 437.475
ITUPSAT 1 30 Mar 04:09:54 04:11:03 11° 276° (W) 04:11:54 437.325
ITAMSAT 1 30 Mar 04:13:26 04:18:39 78° 103° (ESE) 04:23:50 435.822/435.867
M-CUBED/EXP-1 PRIME 30 Mar 04:21:56 04:24:39 17° 53° (NE) 04:27:37 437.505
AIST 1 30 Mar 04:42:43 04:46:45 37° 92° (E) 04:50:50
Oscar 19 30 Mar 04:46:35 04:50:37 23° 299° (WNW) 04:54:34 437.125/150
RS-15 30 Mar 04:48:21 04:59:50 88° 232° (SW) 05:11:49 29.354- 29.394
O/OREOS (USA 219) 30 Mar 04:53:04 04:57:26 45° 109° (ESE) 05:01:51 437.305
KKS-1 30 Mar 04:54:50 04:57:25 15° 272° (W) 04:59:49 437.445
MOZHAYETS 4 30 Mar 04:55:42 05:00:07 46° 70° (ENE) 05:04:35
ISS 30 Mar 05:03:15 05:06:29 70° 206° (SSW) 05:09:42 145.825
SO-50 30 Mar 05:03:25 05:07:58 37° 241° (WSW) 05:12:28 436.795
Gurwin Techsat 1B 30 Mar 05:06:40 05:11:47 48° 292° (WNW) 05:16:52 435.225
HORYU 2 30 Mar 05:16:22 05:20:52 66° 102° (ESE) 05:25:21 437.375
STARS 30 Mar 05:26:45 05:27:55 11° 275° (W) 05:28:49 437.465
AUBIESAT-1 30 Mar 05:29:46 05:33:50 58° 66° (ENE) 05:38:18 437.475
GONETS M04 30 Mar 05:32:50 05:39:07 22° 54° (NE) 05:45:43
JAS-2 30 Mar 05:34:30 05:42:09 54° 97° (E) 05:49:15 435.910
AO-7 30 Mar 05:35:28 05:43:33 53° 101° (E) 05:51:39 29.400- 29.500
PRISM 30 Mar 05:41:38 05:42:46 11° 57° (ENE) 05:44:05 437.425
ITAMSAT 1 30 Mar 05:54:03 05:57:37 19° 302° (WNW) 06:01:03 435.822/435.867
M-CUBED/EXP-1 PRIME 30 Mar 05:54:53 05:58:59 73° 252° (WSW) 06:03:30 437.505
STRAND 1 30 Mar 06:14:19 06:17:56 20° 59° (ENE) 06:21:40 437.568
AIST 1 30 Mar 06:20:52 06:24:33 25° 291° (WNW) 06:28:11
O/OREOS (USA 219) 30 Mar 06:33:08 06:37:04 27° 309° (NW) 06:41:00 437.305
MOZHAYETS 4 30 Mar 06:33:53 06:37:36 23° 269° (W) 06:41:16
ISS 30 Mar 06:40:39 06:42:26 14° 223° (SW) 06:44:09 145.825
CUTE-I 30 Mar 06:41:34 06:44:18 14° 85° (E) 06:47:16 437.470
Cubesat XI-IV 30 Mar 06:41:56 06:44:45 15° 86° (E) 06:47:48 437.490
CUBESAT XI-V 30 Mar 06:44:49 06:49:22 50° 71° (ENE) 06:53:56 437.345
HORYU 2 30 Mar 06:54:04 06:57:06 18° 300° (WNW) 07:00:01 437.375
AUBIESAT-1 30 Mar 07:06:17 07:09:10 17° 267° (W) 07:12:03 437.475
